| time (UTC) | temp F | wind direction | speed MPH | gust MPH | rain 1hr in | rain 24hr in | rain mn in | humidity % | barometer mb |
| 20260503203503 | 62 | 286 | 3.0 | 8.0 | 0.00 | 0.00 | 0.00 | 70 | 1012.8 |
| 20260503203003 | 63 | 251 | 3.0 | 8.0 | 0.00 | 0.00 | 0.00 | 70 | 1012.8 |
| 20260503202503 | 62 | 225 | 4.0 | 10.0 | 0.00 | 0.00 | 0.00 | 71 | 1012.9 |
| 20260503202003 | 63 | 193 | 4.0 | 10.0 | 0.00 | 0.00 | 0.00 | 70 | 1012.9 |
| 20260503201503 | 63 | 201 | 3.0 | 8.0 | 0.00 | 0.00 | 0.00 | 71 | 1013.0 |
| 20260503201003 | 63 | 207 | 3.0 | 8.0 | 0.00 | 0.00 | 0.00 | 71 | 1012.9 |
| 20260503200503 | 63 | 202 | 3.0 | 8.0 | 0.00 | 0.00 | 0.00 | 71 | 1013.0 |
| 20260503200003 | 63 | 213 | 2.0 | 8.0 | 0.00 | 0.00 | 0.00 | 71 | 1013.0 |
| 20260503195503 | 62 | 245 | 3.0 | 12.0 | 0.00 | 0.00 | 0.00 | 72 | 1012.9 |
| 20260503195003 | 62 | 223 | 4.0 | 12.0 | 0.00 | 0.00 | 0.00 | 72 | 1013.0 |
| 20260503194716 | 62 | 208 | 4.0 | 12.0 | 0.00 | 0.00 | 0.00 | 72 | 1013.0 |
| 20260503194217 | 63 | 202 | 4.0 | 12.0 | 0.00 | 0.00 | 0.00 | 72 | 1013.0 |
| 20260503193503 | 63 | 217 | 3.0 | 12.0 | 0.00 | 0.00 | 0.00 | 70 | 1013.0 |
| 20260503193003 | 63 | 229 | 3.0 | 11.0 | 0.00 | 0.00 | 0.00 | 70 | 1013.0 |
| 20260503192503 | 63 | 212 | 3.0 | 11.0 | 0.00 | 0.00 | 0.00 | 68 | 1013.0 |
| 20260503192003 | 64 | 218 | 3.0 | 9.0 | 0.00 | 0.00 | 0.00 | 68 | 1012.9 |
| 20260503191503 | 64 | 234 | 3.0 | 9.0 | 0.00 | 0.00 | 0.00 | 66 | 1013.0 |
| 20260503191219 | 64 | 245 | 3.0 | 9.0 | 0.00 | 0.00 | 0.00 | 67 | 1012.9 |
| 20260503190503 | 64 | 214 | 4.0 | 10.0 | 0.00 | 0.00 | 0.00 | 69 | 1013.0 |
| 20260503190003 | 64 | 233 | 3.0 | 10.0 | 0.00 | 0.00 | 0.00 | 68 | 1012.9 |
| 20260503185503 | 65 | 213 | 3.0 | 8.0 | 0.00 | 0.00 | 0.00 | 68 | 1013.0 |
| 20260503185003 | 64 | 201 | 4.0 | 9.0 | 0.00 | 0.00 | 0.00 | 69 | 1012.9 |
| 20260503184503 | 64 | 208 | 3.0 | 9.0 | 0.00 | 0.00 | 0.00 | 70 | 1012.9 |
| 20260503184217 | 64 | 225 | 3.0 | 9.0 | 0.00 | 0.00 | 0.00 | 70 | 1012.9 |
| 20260503183719 | 63 | 246 | 3.0 | 11.0 | 0.00 | 0.00 | 0.00 | 70 | 1013.0 |
| 20260503183003 | 63 | 243 | 3.0 | 11.0 | 0.00 | 0.00 | 0.00 | 71 | 1012.9 |
| 20260503182503 | 63 | 212 | 4.0 | 9.0 | 0.00 | 0.00 | 0.00 | 72 | 1012.9 |
| 20260503182004 | 63 | 201 | 3.0 | 9.0 | 0.00 | 0.00 | 0.00 | 73 | 1012.8 |
| 20260503181504 | 62 | 244 | 2.0 | 8.0 | 0.00 | 0.00 | 0.00 | 75 | 1012.9 |
| 20260503181003 | 61 | 272 | 2.0 | 9.0 | 0.00 | 0.00 | 0.00 | 79 | 1012.9 |
| 20260503180503 | 60 | 269 | 3.0 | 9.0 | 0.00 | 0.00 | 0.00 | 79 | 1012.9 |
| 20260503180003 | 60 | 268 | 3.0 | 7.0 | 0.00 | 0.00 | 0.00 | 80 | 1012.9 |
| 20260503175718 | 59 | 266 | 3.0 | 8.0 | 0.00 | 0.00 | 0.00 | 79 | 1012.9 |
| 20260503175003 | 59 | 287 | 3.0 | 8.0 | 0.00 | 0.00 | 0.00 | 80 | 1012.8 |
| 20260503174503 | 60 | 284 | 3.0 | 9.0 | 0.00 | 0.00 | 0.00 | 80 | 1013.0 |
| 20260503174217 | 59 | 269 | 3.0 | 9.0 | 0.00 | 0.00 | 0.00 | 79 | 1012.9 |
| 20260503173503 | 60 | 234 | 2.0 | 7.0 | 0.00 | 0.00 | 0.00 | 77 | 1012.9 |
| 20260503173003 | 59 | 211 | 3.0 | 9.0 | 0.00 | 0.00 | 0.00 | 77 | 1012.9 |
| 20260503172716 | 59 | 220 | 2.0 | 9.0 | 0.00 | 0.00 | 0.00 | 76 | 1012.9 |
| 20260503172003 | 60 | 250 | 2.0 | 7.0 | 0.00 | 0.00 | 0.00 | 76 | 1012.9 |
| 20260503171503 | 60 | 214 | 2.0 | 6.0 | 0.00 | 0.00 | 0.00 | 77 | 1012.8 |
| 20260503171003 | 60 | 199 | 2.0 | 5.0 | 0.00 | 0.00 | 0.00 | 78 | 1013.0 |
| 20260503170503 | 59 | 196 | 2.0 | 5.0 | 0.00 | 0.00 | 0.00 | 79 | 1012.9 |
| 20260503151003 | 56 | 208 | 1.0 | 3.0 | 0.00 | 0.00 | 0.00 | 84 | 1012.3 |
| 20260503150719 | 56 | 223 | 1.0 | 3.0 | 0.00 | 0.00 | 0.00 | 84 | 1012.4 |
| 20260503150216 | 56 | 239 | 0.0 | 3.0 | 0.00 | 0.00 | 0.00 | 84 | 1012.3 |
| 20260503131003 | 54 | 267 | 0.0 | 3.0 | 0.00 | 0.00 | 0.00 | 85 | 1010.8 |
| 20260503130718 | 54 | 258 | 0.0 | 3.0 | 0.00 | 0.00 | 0.00 | 85 | 1010.7 |
| 20260503110503 | 54 | 258 | 0.0 | 3.0 | 0.00 | 0.00 | 0.00 | 87 | 1010.9 |
| 20260503090503 | 54 | 262 | 1.0 | 5.0 | 0.00 | 0.00 | 0.00 | 86 | 1011.2 |
| 20260503090218 | 54 | 255 | 1.0 | 5.0 | 0.00 | 0.00 | 0.00 | 86 | 1011.2 |
| 20260503081503 | 54 | 259 | 0.0 | 2.0 | 0.00 | 0.00 | 0.00 | 86 | 1011.7 |
| 20260503081003 | 54 | 279 | 1.0 | 3.0 | 0.00 | 0.00 | 0.00 | 86 | 1011.6 |
| 20260503080716 | 54 | 269 | 1.0 | 4.0 | 0.00 | 0.00 | 0.00 | 86 | 1011.7 |
| 20260503072716 | 54 | 262 | 2.0 | 7.0 | 0.00 | 0.00 | 0.00 | 87 | 1011.7 |
| 20260503072003 | 54 | 263 | 2.0 | 7.0 | 0.00 | 0.00 | 0.00 | 86 | 1011.6 |
| 20260503071503 | 54 | 260 | 1.0 | 7.0 | 0.00 | 0.00 | 0.00 | 87 | 1011.7 |
| 20260503071219 | 54 | 259 | 1.0 | 7.0 | 0.00 | 0.00 | 0.00 | 87 | 1011.7 |
| 20260503070503 | 54 | 266 | 1.0 | 5.0 | 0.00 | 0.00 | 0.00 | 87 | 1011.8 |
| 20260503055003 | 55 | 266 | 2.0 | 8.0 | 0.00 | 0.00 | 0.00 | 86 | 1012.1 |
| 20260503054503 | 55 | 261 | 2.0 | 8.0 | 0.00 | 0.00 | 0.00 | 85 | 1012.1 |
| 20260503054003 | 55 | 258 | 2.0 | 8.0 | 0.00 | 0.00 | 0.00 | 85 | 1012.1 |
| 20260503053503 | 55 | 258 | 1.0 | 7.0 | 0.00 | 0.00 | 0.00 | 85 | 1012.3 |
| 20260503053003 | 55 | 278 | 1.0 | 5.0 | 0.00 | 0.00 | 0.00 | 86 | 1012.3 |
| 20260503052503 | 55 | 271 | 1.0 | 7.0 | 0.00 | 0.00 | 0.00 | 86 | 1012.2 |
| 20260503052003 | 55 | 269 | 1.0 | 7.0 | 0.00 | 0.00 | 0.00 | 86 | 1012.2 |
| 20260503051503 | 55 | 267 | 2.0 | 6.0 | 0.00 | 0.00 | 0.00 | 86 | 1012.2 |
| 20260503051003 | 55 | 265 | 1.0 | 6.0 | 0.00 | 0.00 | 0.00 | 86 | 1012.2 |
| 20260503050503 | 55 | 278 | 1.0 | 4.0 | 0.00 | 0.00 | 0.00 | 86 | 1012.1 |
| 20260503050003 | 55 | 286 | 1.0 | 6.0 | 0.00 | 0.00 | 0.00 | 86 | 1012.1 |
| 20260503045503 | 55 | 274 | 1.0 | 6.0 | 0.00 | 0.00 | 0.00 | 85 | 1012.2 |
| 20260503045218 | 55 | 266 | 1.0 | 5.0 | 0.00 | 0.00 | 0.00 | 85 | 1012.2 |
| 20260503044503 | 55 | 272 | 2.0 | 6.0 | 0.00 | 0.00 | 0.00 | 85 | 1012.2 |
| 20260503044216 | 55 | 270 | 2.0 | 6.0 | 0.00 | 0.00 | 0.00 | 85 | 1012.2 |
| 20260503043503 | 55 | 254 | 2.0 | 4.0 | 0.00 | 0.00 | 0.00 | 85 | 1011.9 |
| 20260503043218 | 55 | 260 | 2.0 | 7.0 | 0.00 | 0.00 | 0.00 | 86 | 1012.0 |
| 20260503042719 | 55 | 266 | 2.0 | 7.0 | 0.00 | 0.00 | 0.00 | 86 | 1012.1 |
| 20260503042003 | 55 | 269 | 2.0 | 9.0 | 0.00 | 0.00 | 0.00 | 86 | 1012.0 |
| 20260503041503 | 55 | 273 | 2.0 | 7.0 | 0.00 | 0.00 | 0.00 | 86 | 1012.0 |
| 20260503041218 | 55 | 271 | 2.0 | 7.0 | 0.00 | 0.00 | 0.00 | 86 | 1011.9 |
| 20260503040503 | 55 | 265 | 2.0 | 8.0 | 0.00 | 0.00 | 0.00 | 86 | 1012.1 |
| 20260503040003 | 55 | 255 | 2.0 | 8.0 | 0.00 | 0.00 | 0.00 | 85 | 1012.0 |
| 20260503035503 | 55 | 254 | 1.0 | 6.0 | 0.00 | 0.00 | 0.00 | 86 | 1011.8 |
| 20260503035003 | 55 | 265 | 1.0 | 6.0 | 0.00 | 0.00 | 0.00 | 85 | 1011.9 |
| 20260503034503 | 55 | 270 | 1.0 | 5.0 | 0.00 | 0.00 | 0.00 | 85 | 1012.0 |
| 20260503034216 | 55 | 291 | 2.0 | 6.0 | 0.00 | 0.00 | 0.00 | 86 | 1011.8 |
| 20260503033503 | 55 | 300 | 1.0 | 6.0 | 0.00 | 0.00 | 0.00 | 86 | 1011.7 |
| 20260503033218 | 55 | 279 | 1.0 | 6.0 | 0.00 | 0.00 | 0.00 | 86 | 1011.6 |
| 20260503032503 | 55 | 268 | 2.0 | 8.0 | 0.00 | 0.00 | 0.00 | 86 | 1011.6 |
| 20260503032003 | 55 | 268 | 3.0 | 9.0 | 0.00 | 0.00 | 0.00 | 86 | 1011.4 |
| 20260503031503 | 55 | 268 | 2.0 | 9.0 | 0.00 | 0.00 | 0.00 | 86 | 1011.3 |
| 20260503031218 | 55 | 269 | 2.0 | 9.0 | 0.00 | 0.00 | 0.00 | 86 | 1011.3 |
| 20260503030503 | 55 | 266 | 2.0 | 7.0 | 0.00 | 0.00 | 0.00 | 86 | 1011.2 |
| 20260503030003 | 55 | 266 | 2.0 | 10.0 | 0.00 | 0.00 | 0.00 | 86 | 1011.2 |
| 20260503025503 | 55 | 277 | 2.0 | 10.0 | 0.00 | 0.00 | 0.00 | 86 | 1011.3 |
| 20260503025003 | 55 | 273 | 3.0 | 7.0 | 0.00 | 0.00 | 0.00 | 86 | 1011.1 |
| 20260503024718 | 55 | 271 | 3.0 | 8.0 | 0.00 | 0.00 | 0.00 | 86 | 1011.2 |
| 20260503024003 | 55 | 271 | 3.0 | 10.0 | 0.00 | 0.00 | 0.00 | 85 | 1011.1 |
| 20260503023717 | 55 | 267 | 3.0 | 10.0 | 0.00 | 0.00 | 0.00 | 85 | 1011.1 |
| 20260503023003 | 56 | 265 | 3.0 | 9.0 | 0.00 | 0.00 | 0.00 | 85 | 1011.2 |
| 20260503022503 | 56 | 274 | 2.0 | 7.0 | 0.00 | 0.00 | 0.00 | 84 | 1011.2 |
| 20260503022003 | 56 | 273 | 2.0 | 9.0 | 0.00 | 0.00 | 0.00 | 85 | 1011.1 |
| 20260503021503 | 56 | 261 | 2.0 | 9.0 | 0.00 | 0.00 | 0.00 | 85 | 1011.2 |
| 20260503021003 | 56 | 263 | 2.0 | 9.0 | 0.00 | 0.00 | 0.00 | 85 | 1011.2 |
| 20260503020503 | 56 | 271 | 3.0 | 9.0 | 0.00 | 0.00 | 0.00 | 84 | 1011.3 |
| 20260503020003 | 56 | 273 | 2.0 | 8.0 | 0.00 | 0.00 | 0.00 | 84 | 1011.2 |
| 20260503015503 | 56 | 265 | 2.0 | 8.0 | 0.00 | 0.00 | 0.00 | 83 | 1011.4 |
| 20260503015003 | 56 | 256 | 2.0 | 6.0 | 0.00 | 0.00 | 0.00 | 83 | 1011.4 |
| 20260503014503 | 56 | 255 | 3.0 | 10.0 | 0.00 | 0.00 | 0.00 | 83 | 1011.4 |
| 20260503014003 | 56 | 261 | 3.0 | 10.0 | 0.00 | 0.00 | 0.00 | 83 | 1011.4 |
| 20260503013503 | 57 | 267 | 3.0 | 8.0 | 0.00 | 0.00 | 0.00 | 82 | 1011.4 |
| 20260503013003 | 57 | 263 | 3.0 | 8.0 | 0.00 | 0.00 | 0.00 | 82 | 1011.5 |
| 20260503012503 | 57 | 255 | 3.0 | 10.0 | 0.00 | 0.00 | 0.00 | 82 | 1011.5 |
| 20260503012003 | 57 | 261 | 2.0 | 10.0 | 0.00 | 0.00 | 0.00 | 81 | 1011.5 |
| 20260503011503 | 57 | 277 | 3.0 | 8.0 | 0.00 | 0.00 | 0.00 | 81 | 1011.6 |
| 20260503011003 | 57 | 264 | 3.0 | 9.0 | 0.00 | 0.00 | 0.00 | 81 | 1011.6 |
| 20260503010503 | 57 | 266 | 3.0 | 11.0 | 0.00 | 0.00 | 0.00 | 81 | 1011.6 |
| 20260503010003 | 57 | 279 | 3.0 | 11.0 | 0.00 | 0.00 | 0.00 | 80 | 1011.7 |
| 20260503005503 | 58 | 272 | 2.0 | 6.0 | 0.00 | 0.00 | 0.00 | 80 | 1011.5 |
| 20260503005003 | 58 | 260 | 3.0 | 10.0 | 0.00 | 0.00 | 0.00 | 80 | 1011.6 |
| 20260503004503 | 57 | 264 | 3.0 | 10.0 | 0.00 | 0.00 | 0.00 | 80 | 1011.5 |
| 20260503004219 | 58 | 266 | 2.0 | 10.0 | 0.00 | 0.00 | 0.00 | 79 | 1011.5 |
| 20260503003503 | 58 | 273 | 3.0 | 13.0 | 0.00 | 0.00 | 0.00 | 80 | 1011.6 |
| 20260503003003 | 58 | 270 | 4.0 | 13.0 | 0.00 | 0.00 | 0.00 | 80 | 1011.7 |
| 20260503002503 | 58 | 267 | 3.0 | 10.0 | 0.00 | 0.00 | 0.00 | 79 | 1011.7 |
| 20260503002219 | 58 | 267 | 3.0 | 10.0 | 0.00 | 0.00 | 0.00 | 79 | 1011.7 |
| 20260503001503 | 58 | 263 | 2.0 | 8.0 | 0.00 | 0.00 | 0.00 | 78 | 1011.8 |
| 20260503001003 | 58 | 264 | 3.0 | 8.0 | 0.00 | 0.00 | 0.00 | 79 | 1011.7 |
| 20260503000503 | 58 | 269 | 3.0 | 8.0 | 0.00 | 0.00 | 0.00 | 78 | 1011.7 |
| 20260503000003 | 59 | 287 | 3.0 | 8.0 | 0.00 | 0.00 | 0.00 | 78 | 1011.9 |
| 20260502235720 | 59 | 286 | 2.0 | 8.0 | 0.00 | 0.00 | 0.00 | 77 | 1011.8 |
| 20260502235003 | 59 | 263 | 3.0 | 11.0 | 0.00 | 0.00 | 0.00 | 78 | 1011.9 |
| 20260502234503 | 59 | 270 | 3.0 | 11.0 | 0.00 | 0.00 | 0.00 | 77 | 1011.9 |
| 20260502234003 | 60 | 270 | 3.0 | 10.0 | 0.00 | 0.00 | 0.00 | 75 | 1012.0 |
| 20260502233503 | 60 | 255 | 2.0 | 6.0 | 0.00 | 0.00 | 0.00 | 76 | 1012.0 |
| 20260502233003 | 60 | 248 | 3.0 | 11.0 | 0.00 | 0.00 | 0.00 | 76 | 1012.0 |
| 20260502232503 | 60 | 239 | 3.0 | 11.0 | 0.00 | 0.00 | 0.00 | 74 | 1012.1 |
| 20260502232218 | 60 | 236 | 2.0 | 11.0 | 0.00 | 0.00 | 0.00 | 73 | 1012.1 |
| 20260502231503 | 60 | 236 | 2.0 | 7.0 | 0.00 | 0.00 | 0.00 | 74 | 1012.2 |
| 20260502231216 | 60 | 239 | 3.0 | 7.0 | 0.00 | 0.00 | 0.00 | 75 | 1012.2 |
| 20260502230717 | 60 | 255 | 3.0 | 7.0 | 0.00 | 0.00 | 0.00 | 75 | 1012.3 |
| 20260502230218 | 60 | 263 | 3.0 | 8.0 | 0.00 | 0.00 | 0.00 | 75 | 1012.3 |
| 20260502225503 | 61 | 257 | 2.0 | 7.0 | 0.00 | 0.00 | 0.00 | 74 | 1012.5 |
| 20260502225003 | 61 | 228 | 2.0 | 7.0 | 0.00 | 0.00 | 0.00 | 75 | 1012.6 |
| 20260502224503 | 61 | 231 | 2.0 | 7.0 | 0.00 | 0.00 | 0.00 | 75 | 1012.5 |
| 20260502224003 | 60 | 256 | 2.0 | 9.0 | 0.00 | 0.00 | 0.00 | 76 | 1012.5 |
| 20260502223503 | 60 | 255 | 2.0 | 9.0 | 0.00 | 0.00 | 0.00 | 75 | 1012.7 |
| 20260502223003 | 60 | 252 | 3.0 | 12.0 | 0.00 | 0.00 | 0.00 | 76 | 1012.8 |
| 20260502222717 | 60 | 245 | 3.0 | 12.0 | 0.00 | 0.00 | 0.00 | 77 | 1012.9 |
| 20260502222003 | 60 | 236 | 3.0 | 12.0 | 0.00 | 0.00 | 0.00 | 76 | 1012.9 |
| 20260502221503 | 59 | 252 | 4.0 | 10.0 | 0.00 | 0.00 | 0.00 | 77 | 1012.9 |
| 20260502221216 | 59 | 253 | 3.0 | 9.0 | 0.00 | 0.00 | 0.00 | 77 | 1013.0 |
| 20260502220503 | 59 | 248 | 3.0 | 8.0 | 0.00 | 0.00 | 0.00 | 77 | 1013.1 |
| 20260502220218 | 59 | 243 | 3.0 | 8.0 | 0.00 | 0.00 | 0.00 | 77 | 1013.1 |
| 20260502215503 | 59 | 249 | 3.0 | 10.0 | 0.00 | 0.00 | 0.00 | 77 | 1013.0 |
| 20260502215003 | 59 | 260 | 3.0 | 10.0 | 0.00 | 0.00 | 0.00 | 78 | 1013.1 |
| 20260502214503 | 59 | 250 | 3.0 | 9.0 | 0.00 | 0.00 | 0.00 | 76 | 1013.1 |
| 20260502214003 | 59 | 255 | 4.0 | 9.0 | 0.00 | 0.00 | 0.00 | 77 | 1013.1 |
| 20260502213719 | 59 | 256 | 4.0 | 9.0 | 0.00 | 0.00 | 0.00 | 77 | 1013.2 |
| 20260502213003 | 59 | 258 | 3.0 | 11.0 | 0.00 | 0.00 | 0.00 | 75 | 1013.1 |
| 20260502212503 | 60 | 245 | 2.0 | 11.0 | 0.00 | 0.00 | 0.00 | 73 | 1013.3 |
| 20260502212003 | 61 | 208 | 3.0 | 8.0 | 0.00 | 0.00 | 0.00 | 73 | 1013.3 |
| 20260502211719 | 60 | 212 | 3.0 | 8.0 | 0.00 | 0.00 | 0.00 | 73 | 1013.1 |
| 20260502211003 | 60 | 225 | 3.0 | 10.0 | 0.00 | 0.00 | 0.00 | 74 | 1013.4 |
| 20260502210503 | 60 | 225 | 3.0 | 7.0 | 0.00 | 0.00 | 0.00 | 74 | 1013.3 |
| 20260502210003 | 60 | 252 | 4.0 | 10.0 | 0.00 | 0.00 | 0.00 | 75 | 1013.4 |
| 20260502205718 | 59 | 249 | 4.0 | 12.0 | 0.00 | 0.00 | 0.00 | 75 | 1013.5 |
| 20260502205003 | 60 | 239 | 3.0 | 12.0 | 0.00 | 0.00 | 0.00 | 74 | 1013.5 |
| 20260502204503 | 60 | 247 | 3.0 | 13.0 | 0.00 | 0.00 | 0.00 | 75 | 1013.6 |